This demonstration page uses our WeatherBlox Daily Observations layout. Learn more.

Left ArrowRight Arrow

41.86663, -103.66717

Hourly Observations for August 6, 2020

Temp ( °F °C ) Dew Point ( °F °C ) Humidity (%) Winds ( mph kmh ) Pressure ( in mb ) Visibility ( mi km ) Precip ( " mm )
12:53 am 00:53 Clear 66 18.9 60 15.6 81 81 ESE 8 13 29.86 1011 10 16 N/A
1:53 am 01:53 Clear 63 17.2 59 15 87 87 ENE 5 7 29.86 1011 10 16 N/A
2:53 am 02:53 Clear 62 16.7 58 14.4 86 86 ESE 5 7 29.84 1011 10 16 N/A
3:53 am 03:53 Clear 61 16.1 58 14.4 90 90 ENE 5 7 29.83 1010 10 16 N/A
4:53 am 04:53 Clear 60 15.6 57 13.9 90 90 ENE 3 6 29.83 1010 10 16 N/A
5:53 am 05:53 Clear 59 15 57 13.9 93 93 E 7 11 29.84 1011 10 16 N/A
6:53 am 06:53 Sunny 62 16.7 58 14.4 86 86 ESE 8 13 29.84 1010 10 16 N/A
7:53 am 07:53 Sunny 66 18.9 58 14.4 75 75 ESE 8 13 29.83 1010 10 16 N/A
8:53 am 08:53 Sunny 71 21.7 58 14.4 63 63 SE 7 11 29.83 1010 10 16 N/A
9:53 am 09:53 Sunny 74 23.3 60 15.6 62 62 ESE 6 9 29.81 1010 10 16 N/A
10:53 am 10:53 Sunny 79 26.1 61 16.1 54 54 VRB 3 6 29.81 1009 10 16 N/A
11:53 am 11:53 Sunny 83 28.3 63 17.2 51 51 E 9 15 29.80 1009 10 16 N/A
12:53 pm 12:53 Sunny 88 31.1 65 18.3 46 46 ESE 14 22 29.76 1008 10 16 N/A
1:53 pm 13:53 Sunny 92 33.3 64 17.8 40 40 E 14 22 29.73 1007 10 16 N/A
2:53 pm 14:53 Sunny 95 35 60 15.6 31 31 E 10 17 29.70 1006 10 16 N/A
3:53 pm 15:53 Sunny 90 32.2 53 11.7 28 28 undefined N/A 29.72 1006 10 16 N/A
4:08 pm 16:08 Partly Cloudy with Nearby Thunderstorms 82 28 54 12 37 37 S 29 46 29.58 1002 9 14 N/A
4:49 pm 16:49 Sunny 90 32 45 7 21 21 SSE 18 30 29.52 1000 10 16 0.00 0.00
4:53 pm 16:53 Sunny 89 31.7 45 7.2 22 22 SSE 18 30 29.72 1007 10 16 0.00 0.00
5:53 pm 17:53 Sunny 88 31.1 48 8.9 25 25 SE 15 24 29.70 1006 10 16 N/A
6:53 pm 18:53 Sunny 86 30 54 12.2 33 33 SE 16 26 29.72 1007 10 16 N/A
7:53 pm 19:53 Sunny 78 25.6 53 11.7 42 42 SSE 15 24 29.75 1008 10 16 N/A
8:53 pm 20:53 Clear 77 25 52 11.1 42 42 SSE 12 19 29.76 1008 10 16 N/A
9:53 pm 21:53 Clear 73 22.8 51 10.6 46 46 ESE 8 13 29.75 1007 10 16 N/A
10:53 pm 22:53 Clear 69 20.6 53 11.7 57 57 SE 9 15 29.75 1007 10 16 N/A
11:53 pm 23:53 Clear 67 19.4 53 11.7 61 61 E 10 17 29.76 1008 10 16 N/A

Powered by AerisWeather